Regional Weather Roundup
Issued by NWS

Home | Current Version | Previous Version | Graphics & Text | Print | Product List | Glossary On
Versions: 1 2 3 4 5 6 7 8 9 10 11 12 13 14 15 16 17 18 19 20 21 22 23 24 25 26 27 28 29 30 31 32 33 34 35 36 37 38 39 40 41 42 43 44 45 46 47 48 49 50
104
ASUS44 KMEG 060910
RWRTN
TENNESSEE HOURLY STATE WEATHER ROUNDUP
NATIONAL WEATHER SERVICE MEMPHIS TN
300 AM CST TUE DEC 06 2016

TNZ002-004-019-021-049-052-054-088>092-061000-
WEST TENNESSEE

CITY           SKY/WX    TMP DP  RH WIND       PRES   REMARKS
MEMPHIS INTL   LGT RAIN  47  46  97 NE7       29.60F FOG
NWS MEMPHIS      N/A     45 N/A N/A MISG        N/A
JACKSON        CLOUDY    47  47 100 VRB3      29.61F
DYERSBURG      CLOUDY   N/A N/A N/A NE8       29.64F
UNION CITY     CLOUDY    43  43 100 CALM      29.64F
PARIS          CLOUDY    43  43 100 NE5       29.64F
LEXINGTON      CLOUDY    46  46 100 CALM      29.61F
$$

TNZ008-025-027-028-033-062-065-066-061000-
NORTH MIDDLE TENNESSEE

CITY           SKY/WX    TMP DP  RH WIND       PRES   REMARKS
NASHVILLE      LGT RAIN  50  49  96 VRB3      29.65F
CLARKSVILLE    LGT RAIN  45  43  93 NE5       29.66F FOG
SMYRNA         RAIN      50  48  93 SE12      29.66F
CROSSVILLE     LGT RAIN  51  49  92 VRB7      29.75F
$$

TNZ061-075-076-078-094-096-097-061000-
SOUTH MIDDLE TENNESSEE

CITY           SKY/WX    TMP DP  RH WIND       PRES   REMARKS
TULLAHOMA      CLOUDY    52  52 100 CALM      29.72F
WINCHESTER     CLOUDY    54  52  94 E12       29.67F
MCMINNVILLE    MOCLDY    55  55 100 S5        29.71F
COLUMBIA         N/A    N/A N/A N/A SE12      29.64F
SHELBYVILLE    CLOUDY    57  55  94 S9        29.72S
$$

TNZ017-018-042-046-047-061000-
NORTHEAST TENNESSEE

CITY           SKY/WX    TMP DP  RH WIND       PRES   REMARKS
TRI CITIES     LGT RAIN  48  45  89 E3        29.84F
$$

TNZ012-013-036-069-073-074-061000-
CENTRAL EAST TENNESSEE

CITY           SKY/WX    TMP DP  RH WIND       PRES   REMARKS
KNOXVILLE      RAIN      49  47  93 N3        29.77F FOG
OAK RIDGE      RAIN      50  47  89 CALM      29.80F
GATLINBURG     CLOUDY    46  46 100 S3        29.79S
$$

TNZ083-085-099-061000-
SOUTHEAST TENNESSEE

CITY           SKY/WX    TMP DP  RH WIND       PRES   REMARKS
CHATTANOOGA    LGT RAIN  51  49  92 N6        29.75F
$$

SKY/WX REPORTED AS FAIR MEANS FEW OR NO CLOUDS BELOW
12 THOUSAND FEET.





USA.gov is the U.S. government's official web portal to all federal, state and local government web resources and services.